[[{"header":{"parameterUnit":"m.s-1","parameterCategory":1,"la1":30.2991,"la2":30.254,"lo1":-89.0895,"lo2":-89.0444,"dy":0.0017,"dx":0.0017,"nx":28,"ny":28,"refTime":"2023-11-09T09:00:00:Z","depth":0,"parameterNumber":2,"parameterNumberName":"U-component_of_WINDS"},"data":[0,0,0,0,0,0,0,0,0,0,0,0,0,0,0,0,0,0,0,0,0,0,0,0,0,0,0,0,0,0,0,0,0,0,0,0,0,0,0,0,0,0,0,0,0,0,0,0,0,0,0,0,0,0,0,0,0,0,-0.3282,-0.3282,0,-0.3273,-0.3273,-0.3273,-0.3273,-0.3274,-0.3274,-0.3274,-0.3265,-0.3265,-0.3264,0,0,0,0,0,0,0,0,0,0,0,0,0,-0.3299,-0.3299,-0.3282,-0.3282,-0.3282,-0.3273,-0.3273,-0.3273,-0.3273,-0.3274,-0.3274,-0.3274,-0.3265,-0.3265,-0.3264,0,0,0,0,0,0,0,0,0,0,0,0,0,-0.3291,-0.3299,-0.3282,-0.3281,-0.3281,-0.3273,-0.3273,-0.3273,-0.3273,-0.3274,-0.3274,-0.3274,-0.3265,-0.3265,-0.3264,-0.3257,0,0,-0.3263,-0.3263,0,0,0,0,0,0,0,0,-0.3291,-0.329,-0.3281,-0.3281,-0.3281,-0.3274,-0.3276,-0.3267,-0.3273,-0.3276,-0.3274,-0.3274,-0.3268,-0.3267,-0.3265,-0.3257,-0.3256,-0.3263,-0.3262,-0.3262,-0.3262,0,0,0,0,0,0,0,-0.3292,-0.3291,-0.3278,-0.3281,-0.3281,-0.3281,-0.328,-0.3274,-0.3271,-0.3276,-0.3276,-0.3275,-0.3268,-0.3266,-0.3265,-0.3256,-0.3263,-0.3262,-0.3262,-0.3262,-0.3239,-0.3239,0,0,0,0,0,0,-0.3293,-0.3291,-0.3279,-0.3278,-0.3287,-0.328,-0.3279,-0.3276,-0.3271,-0.3271,-0.3275,-0.3275,-0.3267,-0.3266,-0.3265,-0.3255,-0.3262,-0.3262,-0.3261,-0.324,-0.3239,-0.3239,0,0,0,0,0,0,-0.3293,-0.3292,-0.3279,-0.3285,-0.3283,-0.328,-0.3276,-0.3276,-0.3274,-0.327,-0.327,-0.3273,-0.3267,-0.3266,-0.3259,-0.3255,-0.3261,-0.3261,-0.324,-0.324,-0.3239,-0.3236,0,0,0,0,0,0,-0.3294,-0.3292,-0.3289,-0.3285,-0.3283,-0.3273,-0.3276,-0.3276,-0.3273,-0.3273,-0.3269,-0.3268,-0.3267,-0.3259,-0.3258,-0.3254,-0.3261,-0.324,-0.324,-0.3239,-0.3236,-0.3235,-0.3234,0,0,0,0,0,-0.3294,-0.3289,-0.3289,-0.3288,-0.3279,-0.3273,-0.3272,-0.327,-0.3272,-0.327,-0.3267,-0.3268,-0.3255,-0.3259,-0.3257,-0.3253,-0.3241,-0.324,-0.3239,-0.3236,-0.3235,-0.3234,0,0,0,0,0,0,-0.3294,-0.3289,-0.3289,-0.3282,-0.3278,-0.3273,-0.327,-0.327,-0.3265,-0.3266,-0.3264,-0.3263,-0.3256,-0.3254,-0.3258,-0.3245,-0.3248,-0.3247,-0.3246,-0.3245,-0.3244,-0.3245,-0.326,0,0,0,0,0,-0.3293,-0.3288,-0.3284,-0.3278,-0.3276,-0.3273,-0.327,-0.3269,-0.3265,-0.3264,-0.3261,-0.3257,-0.3251,-0.3248,-0.3244,-0.3236,-0.3234,-0.3232,-0.3231,-0.323,-0.3229,-0.3224,-0.3222,-0.3237,-0.3237,-0.3237,0,0,-0.3292,-0.3288,-0.3285,-0.3278,-0.3275,-0.3269,-0.3272,-0.3267,-0.3262,-0.3263,-0.3256,-0.3253,-0.3249,-0.3241,-0.3237,-0.3239,-0.3225,-0.3229,-0.3229,-0.3228,-0.3223,-0.3221,-0.322,-0.3237,-0.3237,-0.3237,0,0,-0.3286,-0.3283,-0.3277,-0.3273,-0.3268,-0.3266,-0.3264,-0.3259,-0.3258,-0.325,-0.325,-0.3245,-0.3237,-0.3233,-0.323,-0.322,-0.3221,-0.3219,-0.3214,-0.3209,-0.3208,-0.3207,-0.3202,-0.3201,-0.3218,-0.3218,-0.3218,0,-0.3285,-0.3277,-0.3274,-0.3268,-0.3265,-0.3264,-0.3258,-0.3255,-0.3248,-0.3246,-0.3248,-0.3236,-0.3233,-0.3223,-0.3221,-0.3218,-0.3216,-0.322,-0.3208,-0.3207,-0.3206,-0.3202,-0.32,-0.3218,-0.3218,-0.3218,-0.3218,0,-0.3275,-0.3269,-0.3265,-0.3258,-0.3254,-0.3248,-0.3244,-0.3241,-0.3239,-0.3237,-0.3229,-0.3225,-0.3218,-0.3216,-0.3215,-0.3206,-0.3207,-0.3208,-0.3212,-0.3204,-0.32,-0.3199,-0.3217,-0.3218,-0.3218,-0.3218,0,0,-0.327,-0.326,-0.3259,-0.3255,-0.3248,-0.3244,-0.3237,-0.323,-0.3226,-0.3222,-0.3216,-0.3208,-0.3208,-0.3205,-0.3203,-0.3199,-0.319,-0.32,-0.32,-0.3198,-0.3178,-0.3177,-0.3175,-0.319,-0.319,-0.3189,-0.3178,0,-0.3263,-0.3251,-0.3248,-0.3238,-0.3232,-0.323,-0.3225,-0.3219,-0.3216,-0.3211,-0.3207,-0.3201,-0.3203,-0.3201,-0.3196,-0.3192,-0.3186,-0.3193,-0.3184,-0.3184,-0.3185,-0.3173,-0.3172,-0.3162,-0.3177,-0.3176,-0.3176,0,-0.3254,-0.3247,-0.3236,-0.3229,-0.3226,-0.3221,-0.3214,-0.3208,-0.3202,-0.32,-0.3195,-0.3194,-0.3186,-0.319,-0.3179,-0.3183,-0.3179,-0.3177,-0.3176,-0.3175,-0.3179,-0.3171,-0.3159,-0.3157,-0.3174,-0.3174,-0.3174,0,-0.325,-0.3239,-0.3231,-0.3228,-0.3219,-0.3215,-0.3211,-0.3205,-0.3201,-0.3194,-0.3191,-0.3184,-0.318,-0.3174,-0.3171,-0.3174,-0.3159,-0.3163,-0.3157,-0.3157,-0.3154,-0.3155,-0.314,-0.3152,-0.3152,-0.3152,-0.3152,0,-0.3243,-0.3236,-0.3229,-0.3224,-0.3216,-0.3212,-0.3204,-0.32,-0.3194,-0.3188,-0.3186,-0.318,-0.3176,-0.3169,-0.3166,-0.3157,-0.3155,-0.3153,-0.3152,-0.3153,-0.3153,-0.315,-0.3151,-0.3152,-0.3152,-0.3152,-0.3152,0,-0.3238,-0.3233,-0.3224,-0.3216,-0.3213,-0.3208,-0.32,-0.3195,-0.3191,-0.3183,-0.3181,-0.3175,-0.3167,-0.3162,-0.3152,-0.315,-0.3139,-0.3139,-0.3141,-0.3141,-0.3135,-0.3136,-0.3119,-0.3116,-0.313,-0.313,-0.313,0,-0.3234,-0.3228,-0.3219,-0.3214,-0.321,-0.3203,-0.3198,-0.3193,-0.3188,-0.3179,-0.3175,-0.3166,-0.3159,-0.3146,-0.314,-0.3132,-0.3132,-0.3126,-0.3131,-0.3131,-0.3131,-0.3131,-0.313,-0.3125,-0.3125,-0.3125,-0.3125,0,-0.3226,-0.3223,-0.3216,-0.3208,-0.3201,-0.3195,-0.3188,-0.3184,-0.3178,-0.3173,-0.3164,-0.3158,-0.3147,-0.3138,-0.3129,-0.3125,-0.3124,-0.3124,-0.3122,-0.3122,-0.3124,-0.3122,-0.3139,-0.3124,-0.3124,-0.3124,-0.3124,-0.3124,-0.3221,-0.3215,-0.3207,-0.3199,-0.3193,-0.3186,-0.318,-0.3175,-0.3168,-0.3158,-0.3156,-0.3146,-0.3138,-0.3126,-0.3121,-0.3113,-0.3114,-0.3112,-0.3111,-0.311,-0.311,-0.3125,-0.3111,-0.3111,-0.3112,-0.3112,-0.3112,0,-0.3213,-0.3207,-0.3199,-0.3189,-0.3182,-0.3181,-0.3173,-0.3167,-0.3159,-0.3151,-0.3144,-0.3133,-0.3124,-0.3117,-0.3108,-0.3102,-0.3101,-0.31,-0.31,-0.3099,-0.311,-0.3112,-0.3101,-0.3101,-0.3101,-0.3101,-0.3101,-0.3101,-0.3208,-0.3198,-0.3194,-0.318,-0.3175,-0.3165,-0.316,-0.3154,-0.3148,-0.3135,-0.3128,-0.3123,-0.3115,-0.3105,-0.3096,-0.3094,-0.3091,-0.3089,-0.3087,-0.3097,-0.3099,-0.31,-0.3102,-0.3089,-0.3089,-0.3077,-0.3077,-0.3077]},{"header":{"parameterUnit":"m.s-1","parameterCategory":1,"la1":30.2991,"la2":30.254,"lo1":-89.0895,"lo2":-89.0444,"dy":0.0017,"dx":0.0017,"nx":28,"ny":28,"refTime":"2023-11-09T09:00:00:Z","depth":0,"parameterNumber":3,"parameterNumberName":"V-component_of_WINDS"},"data":[0,0,0,0,0,0,0,0,0,0,0,0,0,0,0,0,0,0,0,0,0,0,0,0,0,0,0,0,0,0,0,0,0,0,0,0,0,0,0,0,0,0,0,0,0,0,0,0,0,0,0,0,0,0,0,0,0,0,1.1343,1.1343,0,1.1345,1.1345,1.1346,1.1297,1.1296,1.1294,1.1293,1.1299,1.13,1.1301,0,0,0,0,0,0,0,0,0,0,0,0,0,1.1301,1.1302,1.1343,1.1343,1.1343,1.1345,1.1345,1.1346,1.1297,1.1295,1.1294,1.1292,1.1298,1.13,1.1302,0,0,0,0,0,0,0,0,0,0,0,0,0,1.1313,1.1302,1.1343,1.1319,1.1317,1.1345,1.1345,1.1346,1.1297,1.1295,1.1293,1.1292,1.1298,1.13,1.1302,1.1354,0,0,1.1308,1.1309,0,0,0,0,0,0,0,0,1.1312,1.1314,1.1322,1.1321,1.1318,1.1319,1.1333,1.1349,1.1298,1.1305,1.1293,1.1291,1.1307,1.1308,1.1313,1.1355,1.1355,1.1308,1.131,1.131,1.1311,0,0,0,0,0,0,0,1.1311,1.1314,1.1344,1.1323,1.132,1.131,1.1309,1.1335,1.1317,1.1304,1.1301,1.1301,1.1306,1.1311,1.1313,1.1355,1.1308,1.131,1.1311,1.1312,1.1443,1.1445,0,0,0,0,0,0,1.1313,1.1314,1.1344,1.1344,1.131,1.1312,1.1312,1.1321,1.1317,1.1314,1.1303,1.1299,1.1309,1.1311,1.1313,1.1376,1.131,1.1312,1.1314,1.1441,1.1443,1.1446,0,0,0,0,0,0,1.1312,1.1316,1.1344,1.1328,1.1331,1.1315,1.1326,1.1322,1.1327,1.1316,1.1313,1.1312,1.1307,1.131,1.1345,1.1376,1.1313,1.1315,1.1438,1.1442,1.1445,1.1502,0,0,0,0,0,0,1.1311,1.1316,1.1335,1.1329,1.1332,1.1374,1.1327,1.1323,1.1331,1.1326,1.1323,1.1321,1.1306,1.1342,1.1347,1.1377,1.1317,1.1435,1.144,1.1444,1.1497,1.1507,1.1515,0,0,0,0,0,1.131,1.1351,1.1336,1.134,1.1354,1.1376,1.1378,1.1358,1.1333,1.1353,1.1346,1.1321,1.1372,1.1346,1.1351,1.1383,1.1433,1.1438,1.1443,1.1493,1.1505,1.1515,0,0,0,0,0,0,1.1361,1.1349,1.1333,1.1372,1.1376,1.1368,1.1391,1.1371,1.1382,1.1377,1.1354,1.1354,1.1393,1.1391,1.1363,1.1435,1.1398,1.1405,1.1435,1.1446,1.1454,1.1454,1.1319,0,0,0,0,0,1.1377,1.1394,1.1384,1.142,1.1422,1.1407,1.1415,1.1401,1.1403,1.1405,1.14,1.1405,1.1422,1.1434,1.1448,1.1497,1.1497,1.1522,1.1531,1.1538,1.1544,1.1572,1.1584,1.1462,1.1462,1.1462,0,0,1.141,1.1406,1.1418,1.143,1.1431,1.1451,1.1408,1.1431,1.1446,1.1408,1.1441,1.1439,1.1442,1.1485,1.1504,1.1485,1.1578,1.1544,1.155,1.1552,1.1579,1.159,1.16,1.1466,1.1465,1.1465,0,0,1.1481,1.1478,1.1509,1.1511,1.1513,1.1503,1.151,1.1506,1.1503,1.1535,1.1508,1.1527,1.1556,1.1561,1.1567,1.1643,1.1622,1.1649,1.1695,1.1724,1.1733,1.1741,1.1771,1.1781,1.1655,1.1655,1.1655,0,1.1522,1.155,1.1528,1.1553,1.156,1.1527,1.1559,1.1563,1.157,1.1576,1.1555,1.1593,1.1593,1.1638,1.1657,1.1662,1.1672,1.1649,1.1733,1.1741,1.1749,1.1777,1.1787,1.1658,1.1658,1.1657,1.1657,0,1.1601,1.1621,1.1647,1.1654,1.1664,1.1693,1.1677,1.1691,1.1676,1.1669,1.1704,1.1703,1.1719,1.1728,1.1714,1.1772,1.1761,1.1737,1.1699,1.1764,1.179,1.18,1.1663,1.1662,1.1661,1.166,0,0,1.1702,1.1699,1.1709,1.1713,1.1714,1.173,1.1759,1.1773,1.1786,1.1793,1.1818,1.1845,1.1824,1.1831,1.1817,1.1842,1.1905,1.1815,1.1815,1.1833,1.1972,1.1991,1.2003,1.1891,1.1893,1.1894,1.1972,0,1.1772,1.1819,1.1802,1.1851,1.1872,1.1842,1.1867,1.1872,1.1867,1.1884,1.1879,1.1899,1.1869,1.1873,1.1896,1.1892,1.1933,1.1886,1.1916,1.1917,1.1916,1.2016,1.2035,1.2108,1.1982,1.1983,1.1985,0,1.1859,1.187,1.1921,1.1921,1.1929,1.1952,1.1965,1.1982,1.1988,1.1983,1.1992,1.1974,1.2005,1.1968,1.2011,1.198,1.1991,1.1992,1.1994,1.1997,1.1955,1.2022,1.2131,1.2143,1.2,1.1999,1.1997,0,1.193,1.1957,1.1992,1.1996,1.1996,1.2014,1.2015,1.2018,1.2029,1.2042,1.2049,1.2066,1.2075,1.2089,1.2077,1.2051,1.2124,1.2085,1.2122,1.2123,1.2139,1.2138,1.2252,1.2145,1.2145,1.2144,1.2144,0,1.2011,1.2044,1.2024,1.2046,1.2083,1.2064,1.2102,1.21,1.2104,1.2126,1.2102,1.2124,1.2106,1.2127,1.2118,1.2157,1.2161,1.2159,1.2157,1.2162,1.2162,1.2169,1.2165,1.2147,1.2147,1.2146,1.2146,0,1.2096,1.2084,1.212,1.2118,1.2118,1.2146,1.2145,1.2166,1.216,1.2189,1.2195,1.2186,1.221,1.2199,1.2224,1.2218,1.2269,1.2259,1.2267,1.2265,1.2303,1.23,1.2427,1.2443,1.2324,1.2325,1.2326,0,1.2148,1.2173,1.2174,1.2186,1.2189,1.221,1.2221,1.2205,1.2218,1.2228,1.2249,1.227,1.2287,1.2327,1.2324,1.2344,1.2335,1.2378,1.2338,1.2344,1.2338,1.2337,1.2341,1.2386,1.2388,1.2389,1.239,0,1.2243,1.2236,1.2253,1.2268,1.2282,1.2294,1.2304,1.2316,1.23,1.2317,1.234,1.2353,1.238,1.2403,1.2421,1.2424,1.2406,1.2403,1.2413,1.2419,1.2423,1.2423,1.229,1.24,1.2399,1.2398,1.2397,1.2397,1.2314,1.2336,1.234,1.236,1.2366,1.2376,1.2397,1.2394,1.2413,1.2432,1.2422,1.2451,1.2459,1.2482,1.2488,1.2512,1.2495,1.2509,1.2513,1.2517,1.2523,1.2419,1.2515,1.2515,1.2514,1.2514,1.2514,0,1.2409,1.2411,1.243,1.2444,1.2461,1.2441,1.2451,1.2467,1.2492,1.2501,1.2518,1.2547,1.257,1.257,1.2592,1.2611,1.2603,1.2618,1.2616,1.2618,1.2536,1.2525,1.2624,1.2624,1.2624,1.2624,1.2624,1.2624,1.2461,1.2497,1.2491,1.2531,1.2533,1.256,1.2569,1.2579,1.2586,1.2619,1.2638,1.2637,1.2644,1.2666,1.2687,1.2687,1.2697,1.2715,1.2712,1.2634,1.2624,1.2613,1.2604,1.2717,1.2717,1.2792,1.2793,1.2793]}]]